Location: Alexandria
(38.8050°N, 77.0470°W)
Time: 11:02:54
(UTC-05:00)

N. Korean satellite - Pass Details

Date: 11 February 2018
Orbit: 459 x 514 km, 97.2° (Epoch: 24 February)

Event Time Altitude Azimuth Distance (km) Brightness Sun altitude
Rises 05:54:03 0° 31° (NNE) 2,540 10.6 -14.2°
Reaches altitude 10° 05:56:43 10° 53° (NE) 1,667 10.0 -13.6°
Maximum altitude 05:59:02 16° 94° (E) 1,328 10.0 -13.2°
Drops below altitude 10° 06:01:22 10° 134° (SE) 1,678 10.1 -12.7°
Sets 06:04:04 0° 156° (SSE) 2,566 10.7 -12.2°
